| time (UTC) | temp F | wind direction | speed knots | gust knots | rain 1hr in | rain 24hr in | rain mn in | humidity % | barometer mb |
| 20260508000907 | 47 | 337 | 0.0 | 0.0 | 0.00 | 0.00 | 0.00 | 100 | 1013.6 |
| 20260508000514 | 47 | 337 | 0.0 | 0.0 | 0.00 | 0.00 | 0.00 | 100 | 1013.4 |
| 20260507230308 | 50 | 180 | 0.0 | 0.0 | 0.00 | 0.00 | 0.00 | 100 | 1013.7 |
| 20260507215708 | 52 | 180 | 0.0 | 0.0 | 0.00 | 0.00 | 0.00 | 100 | 1013.7 |
| 20260507205109 | 54 | 178 | 0.9 | 2.6 | 0.00 | 0.00 | 0.00 | 92 | 1013.4 |
| 20260507194510 | 56 | 159 | 0.9 | 2.6 | 0.00 | 0.00 | 0.00 | 77 | 1012.5 |
| 20260507184304 | 59 | 310 | 2.6 | 7.8 | 0.00 | 0.00 | 0.00 | 69 | 1011.7 |
| 20260507184043 | 60 | 333 | 2.6 | 6.1 | 0.00 | 0.00 | 0.00 | 69 | 1011.8 |
| 20260507183911 | 60 | 333 | 2.6 | 6.1 | 0.00 | 0.00 | 0.00 | 69 | 1011.8 |
| 20260507173705 | 62 | 337 | 1.7 | 3.5 | 0.00 | 0.00 | 0.00 | 59 | 1010.7 |
| 20260507173312 | 63 | 304 | 0.9 | 4.3 | 0.00 | 0.00 | 0.00 | 58 | 1010.7 |
| 20260507163105 | 70 | 283 | 8.7 | 10.4 | 0.00 | 0.00 | 0.00 | 41 | 1010.1 |
| 20260507152506 | 67 | 301 | 1.7 | 6.1 | 0.00 | 0.00 | 0.00 | 47 | 1009.8 |
| 20260507141907 | 72 | 270 | 3.5 | 3.5 | 0.00 | 0.00 | 0.00 | 41 | 1009.5 |
| 20260507131308 | 74 | 297 | 4.3 | 6.1 | 0.00 | 0.00 | 0.00 | 39 | 1009.8 |
| 20260507121102 | 70 | 309 | 3.5 | 8.7 | 0.00 | 0.00 | 0.00 | 46 | 1009.8 |
| 20260507120709 | 69 | 292 | 5.2 | 8.7 | 0.00 | 0.00 | 0.00 | 47 | 1009.9 |
| 20260507110503 | 66 | 296 | 5.2 | 9.6 | 0.00 | 0.00 | 0.00 | 51 | 1010.0 |
| 20260507095903 | 67 | 278 | 6.1 | 9.6 | 0.00 | 0.00 | 0.00 | 51 | 1009.8 |
| 20260507085306 | 68 | 335 | 3.5 | 8.7 | 0.00 | 0.00 | 0.00 | 52 | 1009.2 |
| 20260507074705 | 66 | 312 | 4.3 | 11.3 | 0.00 | 0.00 | 0.00 | 54 | 1008.9 |
| 20260507064458 | 60 | 211 | 3.5 | 8.7 | 0.00 | 0.00 | 0.00 | 100 | 1009.0 |
| 20260507064106 | 60 | 289 | 7.0 | 8.7 | 0.00 | 0.00 | 0.00 | 100 | 1009.1 |
| 20260507053859 | 56 | 184 | 4.3 | 6.1 | 0.00 | 0.00 | 0.00 | 100 | 1008.8 |
| 20260507053507 | 56 | 112 | 0.9 | 0.9 | 0.00 | 0.00 | 0.00 | 100 | 1008.8 |
| 20260507043340 | 53 | 135 | 0.9 | 0.9 | 0.00 | 0.00 | 0.00 | 100 | 1008.0 |
| 20260507042947 | 54 | 118 | 0.0 | 0.0 | 0.00 | 0.00 | 0.00 | 100 | 1008.0 |
| 20260507032820 | 55 | 283 | 3.5 | 7.0 | 0.00 | 0.00 | 0.00 | 100 | 1007.5 |
| 20260507032427 | 55 | 114 | 0.9 | 0.9 | 0.00 | 0.00 | 0.00 | 100 | 1007.4 |
| 20260507022300 | 56 | 270 | 1.7 | 3.5 | 0.00 | 0.00 | 0.00 | 100 | 1007.1 |
| 20260507021907 | 56 | 112 | 0.0 | 0.0 | 0.00 | 0.00 | 0.00 | 100 | 1007.0 |
| 20260507011840 | 57 | 337 | 2.6 | 5.2 | 0.00 | 0.00 | 0.00 | 100 | 1006.6 |
| 20260507011740 | 57 | 337 | 2.6 | 5.2 | 0.00 | 0.00 | 0.00 | 100 | 1006.6 |
| 20260507011347 | 57 | 122 | 0.9 | 0.9 | 0.00 | 0.00 | 0.00 | 100 | 1006.5 |